Change the Weather History Date:

Wednesday, March 6, 2013

  Actual Average Record
Temperature  
Mean Temperature 10 °F -  
Max Temperature 28 °F 24 °F 50 °F (2012)
Min Temperature -7 °F 2 °F -18 °F (2008)
Degree Days  
Heating Degree Days 54    
Moisture  
Dew Point 5 °F    
Average Humidity 71    
Maximum Humidity 86    
Minimum Humidity 47    
Precipitation  
Precipitation 0.00 in - - ()
Sea Level Pressure  
Sea Level Pressure 30.34 in    
Wind  
Wind Speed 2 mph (NNW)    
Max Wind Speed 10 mph    
Max Gust Speed -    
Visibility 8 miles    
Events Snow    
Averages and records for this station are not official NWS values.
T = Trace of Precipitation, MM = Missing Value Source: NWS Daily Summary

Daily Weather History Graph

Daily Weather History Graph

Search for Another Location

Airport or City:

Trip Planner

Search our weather history database for the weather conditions in past years. The results will help you decide how hot, cold, wet, or windy it might be!

Date:

Astronomy

Mar. 06, 2013 Rise Set
Actual Time 6:40 AM CST 6:02 PM CST
Civil Twilight 6:09 AM CST 6:33 PM CST
Nautical Twilight 5:33 AM CST 7:09 PM CST
Astronomical Twilight 4:57 AM CST 7:46 PM CST
Moon 3:10 AM CST (3/6) 12:25 PM CST (3/6)
Length of Visible Light 12h 23m
Length of Day
11h 21m
Waning Crescent, 29% of the Moon is Illuminated
Mar 6
Waning Crescent
Mar 11
New
Mar 19
First Quarter
Mar 27
Full
Apr 2
Last Quarter

Hourly Weather History & Observations

Time (CST) Temp. Windchill Dew Point Humidity Pressure Visibility Wind Dir Wind Speed Gust Speed Precip Events Conditions
12:09 AM 15.8 °F - 10.4 °F 79% 30.32 in 0.8 mi Calm Calm - N/A Snow Light Snow
12:29 AM 15.8 °F 10.2 °F 10.4 °F 79% 30.33 in 0.8 mi NNW 3.5 mph - N/A Snow Light Snow
12:49 AM 15.8 °F - 10.4 °F 79% 30.32 in 1.5 mi Calm Calm - N/A Snow Light Snow
1:09 AM 15.8 °F - 10.4 °F 79% 30.32 in 1.2 mi Calm Calm - N/A Snow Light Snow
1:29 AM 15.8 °F - 10.4 °F 79% 30.33 in 1.0 mi Calm Calm - N/A Snow Light Snow
1:49 AM 14.0 °F 8.2 °F 10.4 °F 86% 30.33 in 1.5 mi NW 3.5 mph - N/A Snow Light Snow
2:09 AM 12.2 °F - 8.6 °F 85% 30.33 in 2.5 mi Calm Calm - N/A Snow Light Snow
2:29 AM 10.4 °F - 6.8 °F 85% 30.33 in 4.0 mi Calm Calm - N/A Snow Light Snow
2:49 AM 6.8 °F - 1.4 °F 79% 30.33 in 1.0 mi Calm Calm - N/A Snow Light Snow
3:09 AM 5.0 °F - -0.4 °F 78% 30.33 in 0.8 mi Calm Calm - N/A Snow Light Snow
3:29 AM 3.2 °F - -2.2 °F 78% 30.34 in 1.8 mi Calm Calm - N/A Snow Light Snow
3:49 AM 1.4 °F - -4.0 °F 78% 30.34 in 4.0 mi Calm Calm - N/A Snow Light Snow
4:09 AM -0.4 °F - -5.8 °F 78% 30.34 in 10.0 mi Calm Calm - N/A   Scattered Clouds
4:29 AM -2.2 °F - -7.6 °F 78% 30.34 in 10.0 mi Calm Calm - N/A   Clear
4:49 AM -2.2 °F - -7.6 °F 78% 30.34 in 10.0 mi Calm Calm - N/A   Clear
5:09 AM -4.0 °F - -9.4 °F 78% 30.35 in 10.0 mi Calm Calm - N/A   Clear
5:49 AM -5.8 °F - -9.4 °F 84% 30.35 in 10.0 mi Calm Calm - N/A   Clear
6:09 AM -5.8 °F - -11.2 °F 77% 30.36 in 2.5 mi Calm Calm - N/A Snow Light Snow
6:29 AM -7.6 °F - -11.2 °F 84% 30.36 in 5.0 mi Calm Calm - N/A Snow Light Snow
6:49 AM -7.6 °F - -13.0 °F 77% 30.37 in 4.0 mi Calm Calm - N/A Snow Light Snow
7:09 AM -7.6 °F - -13.0 °F 77% 30.37 in 10.0 mi Calm Calm - N/A   Scattered Clouds
7:29 AM -7.6 °F - -11.2 °F 84% 30.37 in 2.5 mi Calm Calm - N/A Snow Light Snow
7:49 AM -5.8 °F - -9.4 °F 84% 30.37 in 7.0 mi Calm Calm - N/A Snow Light Snow
8:09 AM -0.4 °F - -4.0 °F 85% 30.37 in 10.0 mi Calm Calm - N/A   Clear
8:29 AM 3.2 °F - -0.4 °F 85% 30.38 in 5.0 mi Calm Calm - N/A   Clear
8:49 AM 12.2 °F 6.1 °F 8.6 °F 85% 30.37 in 10.0 mi NW 3.5 mph - N/A   Clear
9:09 AM 17.6 °F 12.3 °F 12.2 °F 79% 30.38 in 10.0 mi NW 3.5 mph - N/A   Scattered Clouds
9:29 AM 19.4 °F 14.3 °F 12.2 °F 74% 30.38 in 7.0 mi NNE 3.5 mph - N/A Snow Light Snow
9:49 AM 23.0 °F 15.8 °F 15.8 °F 74% 30.38 in 10.0 mi NW 5.8 mph - N/A   Overcast
10:09 AM 21.2 °F 13.6 °F 12.2 °F 68% 30.37 in 10.0 mi NW 5.8 mph - N/A   Overcast
10:29 AM 19.4 °F 10.4 °F 12.2 °F 74% 30.37 in 10.0 mi NNW 6.9 mph - N/A   Overcast
10:49 AM 21.2 °F 12.6 °F 12.2 °F 68% 30.37 in 10.0 mi NNW 6.9 mph - N/A   Overcast
11:09 AM 21.2 °F 14.9 °F 12.2 °F 68% 30.37 in 10.0 mi NNW 4.6 mph - N/A   Overcast
11:29 AM 23.0 °F 17.0 °F 10.4 °F 59% 30.36 in 10.0 mi North 4.6 mph - N/A   Overcast
11:49 AM 24.8 °F - 12.2 °F 59% 30.36 in 10.0 mi Calm Calm - N/A   Scattered Clouds
12:09 PM 26.6 °F 20.0 °F 15.8 °F 64% 30.36 in 10.0 mi NNW 5.8 mph - N/A   Scattered Clouds
12:29 PM 26.6 °F 19.1 °F 12.2 °F 55% 30.35 in 10.0 mi NNW 6.9 mph - N/A   Mostly Cloudy
12:49 PM 26.6 °F 21.2 °F 12.2 °F 55% 30.34 in 10.0 mi NW 4.6 mph - N/A   Mostly Cloudy
1:09 PM 26.6 °F 20.0 °F 12.2 °F 55% 30.34 in 10.0 mi NNW 5.8 mph - N/A   Mostly Cloudy
1:29 PM 26.6 °F 20.0 °F 12.2 °F 55% 30.33 in 10.0 mi NNE 5.8 mph - N/A   Mostly Cloudy
1:49 PM 24.8 °F 19.1 °F 10.4 °F 54% 30.33 in 10.0 mi North 4.6 mph - N/A   Mostly Cloudy
2:09 PM 26.6 °F 19.1 °F 12.2 °F 55% 30.33 in 10.0 mi NW 6.9 mph - N/A   Scattered Clouds
2:29 PM 28.4 °F 22.2 °F 12.2 °F 51% 30.33 in 10.0 mi NNW 5.8 mph - N/A   Scattered Clouds
2:49 PM 28.4 °F 22.2 °F 14.0 °F 55% 30.33 in 10.0 mi NNW 5.8 mph - N/A   Mostly Cloudy
3:09 PM 28.4 °F 22.2 °F 14.0 °F 55% 30.32 in 10.0 mi NW 5.8 mph - N/A   Overcast
3:29 PM 28.4 °F 19.1 °F 10.4 °F 47% 30.31 in 10.0 mi North 10.4 mph - N/A   Scattered Clouds
3:49 PM 26.6 °F 19.1 °F 10.4 °F 51% 30.31 in 10.0 mi North 6.9 mph - N/A   Clear
4:09 PM 26.6 °F 18.2 °F 10.4 °F 51% 30.32 in 10.0 mi NNW 8.1 mph - N/A   Scattered Clouds
4:29 PM 26.6 °F 20.0 °F 12.2 °F 55% 30.32 in 10.0 mi NW 5.8 mph - N/A   Scattered Clouds
4:49 PM 24.8 °F 19.1 °F 12.2 °F 59% 30.32 in 10.0 mi NW 4.6 mph - N/A   Scattered Clouds
5:09 PM 24.8 °F 17.9 °F 10.4 °F 54% 30.32 in 10.0 mi NNW 5.8 mph - N/A   Mostly Cloudy
5:29 PM 21.2 °F - 8.6 °F 58% 30.32 in 10.0 mi Calm Calm - N/A   Overcast
5:49 PM 19.4 °F - 6.8 °F 58% 30.32 in 10.0 mi Calm Calm - N/A   Mostly Cloudy
6:09 PM 15.8 °F - 5.0 °F 62% 30.33 in 10.0 mi Calm Calm - N/A   Overcast
6:29 PM 12.2 °F - 1.4 °F 62% 30.32 in 10.0 mi Calm Calm - N/A   Overcast
6:49 PM 12.2 °F - 1.4 °F 62% 30.33 in 10.0 mi Calm Calm - N/A   Overcast
7:09 PM 10.4 °F - 1.4 °F 67% 30.33 in 10.0 mi Calm Calm - N/A   Mostly Cloudy
7:29 PM 8.6 °F - 1.4 °F 73% 30.34 in 10.0 mi Calm Calm - N/A   Overcast
7:49 PM 8.6 °F - 3.2 °F 79% 30.33 in 10.0 mi Calm Calm - N/A   Overcast
8:09 PM 10.4 °F - 3.2 °F 73% 30.34 in 10.0 mi Calm Calm - N/A   Overcast
8:29 PM 10.4 °F - 6.8 °F 85% 30.35 in 10.0 mi Calm Calm - N/A   Overcast
8:49 PM 12.2 °F - 6.8 °F 79% 30.35 in 10.0 mi Calm Calm - N/A   Overcast
9:09 PM 12.2 °F - 6.8 °F 79% 30.35 in 10.0 mi Calm Calm - N/A   Overcast
9:29 PM 12.2 °F - 6.8 °F 79% 30.35 in 10.0 mi Calm Calm - N/A   Overcast
9:49 PM 10.4 °F - 6.8 °F 85% 30.35 in 10.0 mi Calm Calm - N/A   Overcast
10:09 PM 10.4 °F - 3.2 °F 73% 30.35 in 10.0 mi Calm Calm - N/A   Overcast
10:29 PM 8.6 °F - 1.4 °F 73% 30.35 in 10.0 mi Calm Calm - N/A   Mostly Cloudy
10:49 PM 6.8 °F - 1.4 °F 79% 30.35 in 10.0 mi Calm Calm - N/A   Mostly Cloudy
11:09 PM 3.2 °F - -0.4 °F 85% 30.35 in 10.0 mi Calm Calm - N/A   Scattered Clouds
11:29 PM 3.2 °F - -0.4 °F 85% 30.35 in 10.0 mi Calm Calm - N/A   Overcast
11:49 PM 3.2 °F - -0.4 °F 85% 30.35 in 10.0 mi Calm Calm - N/A   Overcast